Pagina principale
METAR-TAF:

METAR-TAF

Aeroporti :

Ngaoundéré, Camerun

latitudine: 07-21N, longitudine: 013-34E, altezza: 1114 m

Osservazione

Il bollettino è stato emesso 7 ore e 10 minuti fa, alle 17:00 UTC
Vento 4 kt da nord
Temperature 27°C
Umidità 24%
Pressione 1015 hPa
Visibilità 10 km o più
nessuna nube inferiore a 1500 m e nessun cumulonembo

METAR: FKKN 221700Z 36004KT CAVOK 27/05 Q1015

Ora: 01:10 (00:10 UTC)


TAF: mancante

Osservazioni e previsioni meteorologiche di più di 4000 aeroporti (messaggi METAR e TAF).

Le stazioni disponibili sono rappresentate dai dischi gialli e rossi sulla carta.

Puntare il mouse per vedere il nome della stazione.

Clicca sopra per visualizzare le osservazioni e previsioni meteorologiche.

Per cambiare la mappa : fare clic sui pulsanti verdi con una croce nera per ingrandire, il pulsante verde con un trattino per diminuire, o sulla freccia verde per le mappe adiacenti.


METAR-TAF: